Location: Oroua River
(40.4333°S, 175.4333°E)
Time: 14:14:16
(UTC+00:00)

Cosmos 2034 Rocket - Pass Details

Date: 03 February 2023
Orbit: 957 x 1000 km, 82.9° (Epoch: 22 March)

Event Time Altitude Azimuth Distance (km) Brightness Sun altitude
Exits shadow 16:08:51 - 356° (N) 3,293 6.4 -14.1°
Reaches altitude 10° 16:10:20 10° 356° (N) 2,734 6.0 -13.9°
Maximum altitude 16:16:37 87° 85° (E) 990 4.1 -12.9°
Drops below altitude 10° 16:22:55 10° 172° (S) 2,738 7.0 -11.9°
Sets 16:25:25 0° 172° (S) 3,687 7.7 -11.5°
